LEMUR-2-HIMOMANDDAD (44860 NORAD) Tracking and Keplerian Element Data

This shows tracking and keplerian element data for the satellite.

Feedback or suggestion? Click here.




ElementValue
Catalog44860
NameLEMUR-2-HIMOMANDDAD
Epoch Orbit3199
Epoch Day193.72230936
Epoch Year2020
RAAN315.6134
Inclination36.9682
Eccentricity0.000711
Argument of Perigee263.545
Mean Anonmoly96.45
Mean Motion14.98787745
Decay Rate5.04E-06
L11 44860U 19089J 20193.72230936 .00000504 00000-0 47505-4 0 9990
L22 44860 36.9682 315.6134 0007110 263.5450 96.4500 14.98787745 31991

Live tracking and technical data element details for LEMUR-2-HIMOMANDDAD (NORAD 44860). LEMUR-2-HIMOMANDDAD can be tracked NOW for your location showing map with azimuth and elevation plus other details from your city location.

Track the satellite on the map from your city or location and see movement details for azimuth, elevation, latitude, longitude, range, height, and movement on the map or in text.







IsCatalogInMostPopularTable: catalog: 44860, numindb: 58
Update: records affected: 1



GetName: 44860 LEMUR-2-HIMOMANDDAD

Hit Count: updated at: Mon, 13 Jul 2020 05:31:13 GMT